OBJECT D, 67222

Orbit data source: Space-Track

You're viewing an Uncataloged Satellite

Recently launched and/or uncataloged satellites may have evolving metadata. Metadata may include but not limited to: Owner, Maufacturer, Bus, Motor, and Mission.

OBJECT D, 67222 is a satellite owned by USAF STP (US) in LEO that was launched on Thu, 18 Dec 2025 UTC via an ELECTRON launch vehicle from the Wallops Island (WLPIS). Unknown objects in Earth's orbit typically refer to objects detected orbiting the Earth but have not yet been identified or cataloged. These objects could be anything from previously untracked satellites, spent rocket stages, debris from satellite collisions, or even natural meteoroids temporarily captured by Earth's gravity.

Loading next visibility...
Identifier
67222, 2025-305D
Orbit
LEO
Country
Flag of USUS
Related business
Manufacturer
AERO
Mission
Operational spacecraft
Bus & Motor
DISKSAT, EP
Mass
3 kg wet, 3 kg dry
Launch date (UTC)
2025-12-18 (4 days ago)
Launch vehicle
ELECTRON
Launch site
Wallops Island (WLPIS)
Object type
Unknown
Shape & HBR
Unknown
Radar Cross Section
RCS unknown

Expand to show TLE details & history
Last TLE update: 1 day ago

TLE from 1 day ago
0 OBJECT D
1 67222U 25305D   25354.31483363  .00001252  00000-0  10184-3 0  9991
2 67222  45.0056 310.4150 0004477 287.6101  72.4284 15.05567005   317
Epoch: 2025-12-20T07:33Z
TLE epoch observation values (Epoch: 2025-12-20T07:33:21.625Z)
Latitude
-0.00006°
Longitude
107.93143°
Altitude
548.83 km
Speed
7.59 km/s
True Right ascension
20h 41m 39s
True Declination
0° 00' 00"
Sunlit
Object was in daylight at epoch
Visualization orbit readout
Latitude
Unknown
Longitude
Unknown
Altitude
Unknown
Speed
Unknown
Apparent Right ascension
Unknown
Apparent Declination
Unknown
Sunlit
N/A
Visualization observer readout
Local Sidereal Time
12:17:33
Azimuth
Unknown
Elevation
Unknown
Doppler factor
Unknown
Orbital elements
Apogee altitude
554.461 km
Perigee altitude
548.256 km
Semi-major axis
6,929.496 km
Eccentricity
0.00045
Inclination
45.0056°
RAAN
310.415°
Arg. of periapsis
287.6101°
True anomaly
72.47732°
Mean anomaly
72.4284°
Eccentric anomaly
72.45286°
Mean motion
3.76262 °/min
Orbital period
95.68 mins
BSTAR
0.00010184
Loading maneuver chart data...
Computing Atmospheric mass density...
Loading historical data...
Loading historical data...
Loading historical data...
Loading historical data...
Loading historical data...
Loading historical data...
Loading historical data...
Other satellites on launch #305 in the year 2025 (2025-12-18 UTC)

Documentation

Showing up to 5 results
|